Warroad, MN

12:26 AM CDT on July 21, 2017 (GMT -0500)
Warroad International-Carlson

Weather History for KRRT - May, 2013

Change the Weather History Date:

Sunday, May 12, 2013

  Actual Average Record
Temperature  
Mean Temperature 34 °F -  
Max Temperature 46 °F 61 °F 87 °F (1977)
Min Temperature 21 °F 38 °F 21 °F (2013)
Degree Days  
Heating Degree Days 32    
Moisture  
Dew Point 24 °F    
Average Humidity 61    
Maximum Humidity 93    
Minimum Humidity 43    
Precipitation  
Precipitation 0.00 in - - ()
Sea Level Pressure  
Sea Level Pressure 30.18 in    
Wind  
Wind Speed 5 mph (East)    
Max Wind Speed 14 mph    
Max Gust Speed -    
Visibility 10 miles    
Events      
Averages and records for this station are not official NWS values.
T = Trace of Precipitation, MM = Missing Value Source: NWS Daily Summary

Daily Weather History Graph

Daily Weather History Graph

Search for Another Location

Airport or City:

Trip Planner

Search our weather history database for the weather conditions in past years. The results will help you decide how hot, cold, wet, or windy it might be!

Date:

Astronomy

May. 12, 2013 Rise Set
Actual Time 5:43 AM CDT 8:53 PM CDT
Civil Twilight 5:05 AM CDT 9:31 PM CDT
Nautical Twilight 4:16 AM CDT 10:20 PM CDT
Astronomical Twilight 3:14 AM CDT 11:23 PM CDT
Moon 7:35 AM CDT (5/12) 11:23 PM CDT (5/12)
Length of Visible Light 16h 25m
Length of Day
15h 10m
Waxing Crescent, 7% of the Moon is Illuminated
May 12
Waxing Crescent
May 17
First Quarter
May 24
Full
May 31
Last Quarter
Jun 8
New

Hourly Weather History & Observations

Time (CDT) Temp. Windchill Dew Point Humidity Pressure Visibility Wind Dir Wind Speed Gust Speed Precip Events Conditions
12:14 AM 30.2 °F - 19.4 °F 64% 30.23 in 10.0 mi Calm Calm - N/A   Clear
12:34 AM 30.2 °F - 19.4 °F 64% 30.24 in 10.0 mi Calm Calm - N/A   Clear
12:54 AM 30.2 °F 26.7 °F 19.4 °F 64% 30.24 in 10.0 mi NW 3.5 mph - N/A   Clear
1:14 AM 30.2 °F 24.3 °F 19.4 °F 64% 30.23 in 10.0 mi NW 5.8 mph - N/A   Clear
1:34 AM 30.2 °F 25.4 °F 19.4 °F 64% 30.23 in 10.0 mi NW 4.6 mph - N/A   Clear
1:54 AM 30.2 °F 25.4 °F 19.4 °F 64% 30.23 in 10.0 mi NNW 4.6 mph - N/A   Clear
2:14 AM 28.4 °F 24.6 °F 19.4 °F 69% 30.22 in 10.0 mi NNW 3.5 mph - N/A   Clear
2:34 AM 28.4 °F 24.6 °F 19.4 °F 69% 30.22 in 10.0 mi NW 3.5 mph - N/A   Clear
2:54 AM 28.4 °F 24.6 °F 19.4 °F 69% 30.22 in 10.0 mi NNW 3.5 mph - N/A   Clear
3:13 AM 26.6 °F - 19.4 °F 74% 30.22 in 10.0 mi Calm Calm - N/A   Clear
3:34 AM 24.8 °F - 19.4 °F 80% 30.22 in 10.0 mi Calm Calm - N/A   Clear
3:54 AM 26.6 °F - 19.4 °F 74% 30.22 in 10.0 mi Calm Calm - N/A   Clear
4:34 AM 24.8 °F - 19.4 °F 80% 30.22 in 10.0 mi Calm Calm - N/A   Clear
4:54 AM 24.8 °F - 19.4 °F 80% 30.22 in 10.0 mi Calm Calm - N/A   Clear
5:14 AM 23.0 °F - 19.4 °F 86% 30.22 in 10.0 mi Calm Calm - N/A   Clear
5:34 AM 23.0 °F - 19.4 °F 86% 30.22 in 10.0 mi Calm Calm - N/A   Clear
5:54 AM 21.2 °F - 19.4 °F 93% 30.23 in 10.0 mi Calm Calm - N/A   Clear
6:14 AM 21.2 °F - 17.6 °F 86% 30.24 in 10.0 mi Calm Calm - N/A   Clear
6:34 AM 23.0 °F - 19.4 °F 86% 30.24 in 10.0 mi Calm Calm - N/A   Clear
6:54 AM 26.6 °F 22.6 °F 21.2 °F 80% 30.24 in 10.0 mi WSW 3.5 mph - N/A   Clear
7:14 AM 28.4 °F - 21.2 °F 74% 30.24 in 10.0 mi Calm Calm - N/A   Clear
7:34 AM 30.2 °F - 23.0 °F 75% 30.24 in 10.0 mi Calm Calm - N/A   Clear
7:54 AM 32.0 °F - 24.8 °F 75% 30.24 in 10.0 mi Calm Calm - N/A   Clear
8:14 AM 33.8 °F - 24.8 °F 70% 30.24 in 10.0 mi Calm Calm - N/A   Clear
8:34 AM 35.6 °F - 26.6 °F 70% 30.24 in 10.0 mi Calm Calm - N/A   Clear
8:54 AM 37.4 °F 33.8 °F 24.8 °F 60% 30.24 in 10.0 mi West 4.6 mph - N/A   Clear
9:14 AM 37.4 °F - 24.8 °F 60% 30.24 in 10.0 mi Calm Calm - N/A   Clear
9:34 AM 39.2 °F - 24.8 °F 56% 30.24 in 10.0 mi Calm Calm - N/A   Clear
9:54 AM 37.4 °F 32.1 °F 26.6 °F 65% 30.24 in 10.0 mi East 6.9 mph - N/A   Clear
10:14 AM 39.2 °F 34.2 °F 26.6 °F 61% 30.24 in 10.0 mi East 6.9 mph - N/A   Clear
10:34 AM 39.2 °F 33.6 °F 26.6 °F 61% 30.24 in 10.0 mi East 8.1 mph - N/A   Clear
10:54 AM 39.2 °F 33.6 °F 26.6 °F 61% 30.23 in 10.0 mi East 8.1 mph - N/A   Clear
11:14 AM 39.2 °F 33.0 °F 26.6 °F 61% 30.23 in 10.0 mi East 9.2 mph - N/A   Clear
11:34 AM 39.2 °F 32.5 °F 28.4 °F 65% 30.22 in 10.0 mi East 10.4 mph - N/A   Clear
11:54 AM 39.2 °F 33.0 °F 26.6 °F 61% 30.22 in 10.0 mi East 9.2 mph - N/A   Clear
12:14 PM 41.0 °F 34.7 °F 24.8 °F 53% 30.21 in 10.0 mi East 10.4 mph - N/A   Clear
12:34 PM 42.8 °F 36.2 °F 24.8 °F 49% 30.20 in 10.0 mi East 12.7 mph - N/A   Clear
12:54 PM 42.8 °F 36.6 °F 24.8 °F 49% 30.20 in 10.0 mi East 11.5 mph - N/A   Clear
1:14 PM 44.6 °F 39.2 °F 23.0 °F 43% 30.19 in 10.0 mi East 10.4 mph - N/A   Clear
1:34 PM 44.6 °F 39.2 °F 23.0 °F 43% 30.19 in 10.0 mi East 10.4 mph - N/A   Clear
1:54 PM 42.8 °F 37.0 °F 24.8 °F 49% 30.19 in 10.0 mi ENE 10.4 mph - N/A   Clear
2:14 PM 42.8 °F 36.6 °F 26.6 °F 53% 30.18 in 10.0 mi ENE 11.5 mph - N/A   Clear
2:34 PM 42.8 °F 36.6 °F 26.6 °F 53% 30.17 in 10.0 mi East 11.5 mph - N/A   Clear
2:54 PM 42.8 °F 36.2 °F 26.6 °F 53% 30.16 in 10.0 mi ENE 12.7 mph - N/A   Clear
3:14 PM 42.8 °F 37.0 °F 28.4 °F 57% 30.16 in 10.0 mi ENE 10.4 mph - N/A   Clear
3:34 PM 42.8 °F 35.8 °F 26.6 °F 53% 30.16 in 10.0 mi ENE 13.8 mph - N/A   Clear
3:54 PM 44.6 °F 38.4 °F 26.6 °F 49% 30.15 in 10.0 mi ENE 12.7 mph - N/A   Clear
4:14 PM 44.6 °F 38.1 °F 24.8 °F 46% 30.14 in 10.0 mi ENE 13.8 mph - N/A   Clear
4:34 PM 44.6 °F 38.4 °F 24.8 °F 46% 30.14 in 10.0 mi ENE 12.7 mph - N/A   Clear
4:54 PM 44.6 °F 38.4 °F 26.6 °F 49% 30.13 in 10.0 mi ENE 12.7 mph - N/A   Clear
5:14 PM 44.6 °F 38.4 °F 26.6 °F 49% 30.13 in 10.0 mi ENE 12.7 mph - N/A   Clear
5:34 PM 46.4 °F 41.5 °F 26.6 °F 46% 30.13 in 10.0 mi ENE 10.4 mph - N/A   Clear
5:54 PM 46.4 °F 41.1 °F 24.8 °F 43% 30.12 in 10.0 mi ENE 11.5 mph - N/A   Clear
6:14 PM 46.4 °F 41.5 °F 24.8 °F 43% 30.12 in 10.0 mi ENE 10.4 mph - N/A   Clear
6:34 PM 46.4 °F 41.1 °F 24.8 °F 43% 30.11 in 10.0 mi ENE 11.5 mph - N/A   Clear
6:54 PM 46.4 °F 41.5 °F 24.8 °F 43% 30.10 in 10.0 mi ENE 10.4 mph - N/A   Clear
7:14 PM 44.6 °F 39.2 °F 26.6 °F 49% 30.10 in 10.0 mi ENE 10.4 mph - N/A   Clear
7:34 PM 44.6 °F 39.7 °F 24.8 °F 46% 30.10 in 10.0 mi East 9.2 mph - N/A   Clear
7:54 PM 44.6 °F 39.7 °F 26.6 °F 49% 30.09 in 10.0 mi East 9.2 mph - N/A   Clear
8:14 PM 42.8 °F 38.0 °F 28.4 °F 57% 30.09 in 10.0 mi ESE 8.1 mph - N/A   Clear
8:33 PM 42.8 °F 37.5 °F 26.6 °F 53% 30.08 in 10.0 mi ESE 9.2 mph - N/A   Clear
8:54 PM 42.8 °F 38.0 °F 26.6 °F 53% 30.08 in 10.0 mi ESE 8.1 mph - N/A   Clear
9:13 PM 41.0 °F 36.4 °F 26.6 °F 57% 30.08 in 10.0 mi SE 6.9 mph - N/A   Clear
9:34 PM 41.0 °F 36.4 °F 26.6 °F 57% 30.08 in 10.0 mi ESE 6.9 mph - N/A   Clear
9:54 PM 41.0 °F 36.4 °F 24.8 °F 53% 30.08 in 10.0 mi ESE 6.9 mph - N/A   Clear
10:14 PM 41.0 °F 35.8 °F 26.6 °F 57% 30.08 in 10.0 mi SE 8.1 mph - N/A   Clear
10:34 PM 41.0 °F 35.8 °F 26.6 °F 57% 30.07 in 10.0 mi ESE 8.1 mph - N/A   Clear
10:54 PM 41.0 °F 35.8 °F 26.6 °F 57% 30.06 in 10.0 mi ESE 8.1 mph - N/A   Clear
11:14 PM 39.2 °F 34.2 °F 26.6 °F 61% 30.06 in 10.0 mi SE 6.9 mph - N/A   Clear
11:34 PM 39.2 °F 34.2 °F 24.8 °F 56% 30.05 in 10.0 mi SE 6.9 mph - N/A   Clear
11:54 PM 39.2 °F 33.6 °F 24.8 °F 56% 30.04 in 10.0 mi ESE 8.1 mph - N/A   Clear